contact:dominique.lefevre@mio.osupytheas.fr, maurice.libes@osupytheas.fr, didier.mallarino@osupytheas.fr
Project:EMSO http://www.emso-fr.org/EMSO-France
Depth: 2436.0 m
Title:EMSO Ligure Ouest : Data MII capteur MICROCAT
DateTime_Computer,Latitude,Longitude,Temperature,Conductivity,Pressure,DateTime_Instrument
DateTime_Computer,Latitude,Longitude,degC,S m-1,dbar,DateTime_Instrument
2023-01-18T00:00:40Z,42.805,6.029,13.3048,4.60131,2470.507,2023-1-18T02:06:59Z
2023-01-18T00:03:43Z,42.805,6.029,13.3052,4.60095,2470.507,2023-1-18T02:10:02Z
2023-01-18T00:06:46Z,42.805,6.029,13.3042,4.60137,2470.53,2023-1-18T02:13:05Z
2023-01-18T00:09:49Z,42.805,6.029,13.3032,4.60125,2470.497,2023-1-18T02:16:08Z
2023-01-18T00:12:52Z,42.805,6.029,13.3034,4.60149,2470.544,2023-1-18T02:19:12Z
2023-01-18T00:15:55Z,42.805,6.029,13.3052,4.60163,2470.544,2023-1-18T02:22:15Z
2023-01-18T00:18:58Z,42.805,6.029,13.3091,4.60186,2470.567,2023-1-18T02:25:18Z
2023-01-18T00:22:01Z,42.805,6.029,13.3059,4.60212,2470.53,2023-1-18T02:28:21Z
2023-01-18T00:25:04Z,42.805,6.029,13.3039,4.60137,2470.507,2023-1-18T02:31:24Z
2023-01-18T00:28:07Z,42.805,6.029,13.3084,4.60154,2470.544,2023-1-18T02:34:27Z
2023-01-18T00:31:11Z,42.805,6.029,13.3073,4.60127,2470.507,2023-1-18T02:37:30Z
2023-01-18T00:34:14Z,42.805,6.029,13.3061,4.60155,2470.53,2023-1-18T02:40:33Z
2023-01-18T00:37:17Z,42.805,6.029,13.3077,4.60152,2470.53,2023-1-18T02:43:36Z
2023-01-18T00:40:20Z,42.805,6.029,13.3058,4.60127,2470.53,2023-1-18T02:46:39Z
2023-01-18T00:43:23Z,42.805,6.029,13.3058,4.60138,2470.567,2023-1-18T02:49:42Z
2023-01-18T00:46:26Z,42.805,6.029,13.3039,4.60156,2470.553,2023-1-18T02:52:46Z
2023-01-18T00:49:29Z,42.805,6.029,13.3058,4.60170,2470.53,2023-1-18T02:55:49Z
2023-01-18T00:52:32Z,42.805,6.029,13.3055,4.60159,2470.553,2023-1-18T02:58:52Z
2023-01-18T00:55:35Z,42.805,6.029,13.3067,4.60143,2470.567,2023-1-18T03:01:55Z
2023-01-18T00:58:38Z,42.805,6.029,13.3046,4.60172,2470.577,2023-1-18T03:04:58Z
2023-01-18T01:01:41Z,42.805,6.029,13.3043,4.60135,2470.544,2023-1-18T03:08:01Z
2023-01-18T01:04:44Z,42.805,6.029,13.3052,4.60117,2470.577,2023-1-18T03:11:04Z
2023-01-18T01:07:48Z,42.805,6.029,13.3035,4.60155,2470.567,2023-1-18T03:14:07Z
2023-01-18T01:10:51Z,42.805,6.029,13.3051,4.60140,2470.591,2023-1-18T03:17:10Z
2023-01-18T01:13:54Z,42.805,6.029,13.3026,4.60161,2470.591,2023-1-18T03:20:13Z
2023-01-18T01:16:57Z,42.805,6.029,13.3040,4.60135,2470.553,2023-1-18T03:23:16Z
2023-01-18T01:20:00Z,42.805,6.029,13.3037,4.60129,2470.553,2023-1-18T03:26:19Z
2023-01-18T01:23:03Z,42.805,6.029,13.3052,4.60147,2470.567,2023-1-18T03:29:23Z
2023-01-18T01:26:06Z,42.805,6.029,13.3034,4.60141,2470.577,2023-1-18T03:32:26Z
2023-01-18T01:29:09Z,42.805,6.029,13.3026,4.60110,2470.591,2023-1-18T03:35:29Z
2023-01-18T01:32:12Z,42.805,6.029,13.3022,4.60100,2470.6,2023-1-18T03:38:32Z
2023-01-18T01:35:15Z,42.805,6.029,13.3019,4.60140,2470.6,2023-1-18T03:41:35Z
2023-01-18T01:38:18Z,42.805,6.029,13.3028,4.60138,2470.577,2023-1-18T03:44:38Z
2023-01-18T01:41:21Z,42.805,6.029,13.3026,4.60122,2470.6,2023-1-18T03:47:41Z
2023-01-18T01:44:25Z,42.805,6.029,13.3026,4.60145,2470.591,2023-1-18T03:50:44Z
2023-01-18T01:47:28Z,42.805,6.029,13.3034,4.60128,2470.553,2023-1-18T03:53:47Z
2023-01-18T01:50:31Z,42.805,6.029,13.3021,4.60117,2470.6,2023-1-18T03:56:50Z
2023-01-18T01:53:34Z,42.805,6.029,13.3032,4.60135,2470.591,2023-1-18T03:59:53Z
2023-01-18T01:56:37Z,42.805,6.029,13.3024,4.60106,2470.624,2023-1-18T04:02:57Z
2023-01-18T01:59:40Z,42.805,6.029,13.3023,4.60101,2470.6,2023-1-18T04:06:00Z
2023-01-18T02:02:43Z,42.805,6.029,13.3024,4.60108,2470.614,2023-1-18T04:09:03Z
2023-01-18T02:05:46Z,42.805,6.029,13.3024,4.60110,2470.577,2023-1-18T04:12:06Z
2023-01-18T02:08:49Z,42.805,6.029,13.3022,4.60077,2470.591,2023-1-18T04:15:09Z
2023-01-18T02:11:52Z,42.805,6.029,13.3029,4.60099,2470.624,2023-1-18T04:18:12Z
2023-01-18T02:14:55Z,42.805,6.029,13.3023,4.60123,2470.637,2023-1-18T04:21:15Z
2023-01-18T02:17:59Z,42.805,6.029,13.3025,4.60132,2470.624,2023-1-18T04:24:18Z
2023-01-18T02:21:02Z,42.805,6.029,13.3025,4.60121,2470.614,2023-1-18T04:27:21Z
2023-01-18T02:24:05Z,42.805,6.029,13.3030,4.60122,2470.6,2023-1-18T04:30:24Z
2023-01-18T02:27:08Z,42.805,6.029,13.3030,4.60144,2470.646,2023-1-18T04:33:27Z
2023-01-18T02:30:11Z,42.805,6.029,13.3018,4.60111,2470.637,2023-1-18T04:36:31Z
2023-01-18T02:33:14Z,42.805,6.029,13.3018,4.60102,2470.637,2023-1-18T04:39:34Z
2023-01-18T02:36:17Z,42.805,6.029,13.3019,4.60098,2470.624,2023-1-18T04:42:37Z
2023-01-18T02:39:20Z,42.805,6.029,13.3026,4.60114,2470.646,2023-1-18T04:45:40Z
2023-01-18T02:42:23Z,42.805,6.029,13.3022,4.60112,2470.624,2023-1-18T04:48:43Z
2023-01-18T02:45:26Z,42.805,6.029,13.3019,4.60104,2470.661,2023-1-18T04:51:46Z
2023-01-18T02:48:29Z,42.805,6.029,13.3015,4.60094,2470.637,2023-1-18T04:54:49Z
2023-01-18T02:51:32Z,42.805,6.029,13.3019,4.60090,2470.637,2023-1-18T04:57:52Z
2023-01-18T02:54:36Z,42.805,6.029,13.3022,4.60085,2470.646,2023-1-18T05:00:55Z
2023-01-18T02:57:39Z,42.805,6.029,13.3034,4.60122,2470.614,2023-1-18T05:03:58Z
2023-01-18T03:00:42Z,42.805,6.029,13.3035,4.60117,2470.637,2023-1-18T05:07:01Z
2023-01-18T03:03:45Z,42.805,6.029,13.3031,4.60125,2470.661,2023-1-18T05:10:04Z
2023-01-18T03:06:48Z,42.805,6.029,13.3024,4.60105,2470.624,2023-1-18T05:13:08Z
2023-01-18T03:09:51Z,42.805,6.029,13.3019,4.60098,2470.624,2023-1-18T05:16:11Z
2023-01-18T03:12:54Z,42.805,6.029,13.3022,4.60084,2470.624,2023-1-18T05:19:14Z
2023-01-18T03:15:57Z,42.805,6.029,13.3021,4.60094,2470.646,2023-1-18T05:22:17Z
2023-01-18T03:19:00Z,42.805,6.029,13.3020,4.60104,2470.684,2023-1-18T05:25:20Z
2023-01-18T03:22:03Z,42.805,6.029,13.3030,4.60110,2470.646,2023-1-18T05:28:23Z
2023-01-18T03:25:06Z,42.805,6.029,13.3021,4.60098,2470.646,2023-1-18T05:31:26Z
2023-01-18T03:28:10Z,42.805,6.029,13.3023,4.60091,2470.646,2023-1-18T05:34:29Z
2023-01-18T03:31:13Z,42.805,6.029,13.3021,4.60093,2470.637,2023-1-18T05:37:32Z
2023-01-18T03:34:16Z,42.805,6.029,13.3026,4.60108,2470.646,2023-1-18T05:40:35Z
2023-01-18T03:37:19Z,42.805,6.029,13.3020,4.60112,2470.67,2023-1-18T05:43:38Z
2023-01-18T03:40:22Z,42.805,6.029,13.3020,4.60092,2470.646,2023-1-18T05:46:42Z
2023-01-18T03:43:25Z,42.805,6.029,13.3029,4.60099,2470.624,2023-1-18T05:49:45Z
2023-01-18T03:46:28Z,42.805,6.029,13.3025,4.60092,2470.6,2023-1-18T05:52:48Z
2023-01-18T03:49:31Z,42.805,6.029,13.3026,4.60102,2470.646,2023-1-18T05:55:51Z
2023-01-18T03:52:34Z,42.805,6.029,13.3021,4.60086,2470.67,2023-1-18T05:58:54Z
2023-01-18T03:55:37Z,42.805,6.029,13.3021,4.60082,2470.624,2023-1-18T06:01:57Z
2023-01-18T03:58:40Z,42.805,6.029,13.3024,4.60090,2470.646,2023-1-18T06:05:00Z
2023-01-18T04:01:43Z,42.805,6.029,13.3024,4.60109,2470.637,2023-1-18T06:08:03Z
2023-01-18T04:04:47Z,42.805,6.029,13.3019,4.60094,2470.624,2023-1-18T06:11:06Z
2023-01-18T04:07:50Z,42.805,6.029,13.3025,4.60096,2470.624,2023-1-18T06:14:09Z
2023-01-18T04:10:53Z,42.805,6.029,13.3019,4.60088,2470.624,2023-1-18T06:17:12Z
2023-01-18T04:13:56Z,42.805,6.029,13.3024,4.60086,2470.67,2023-1-18T06:20:16Z
2023-01-18T04:16:59Z,42.805,6.029,13.3020,4.60084,2470.6,2023-1-18T06:23:19Z
2023-01-18T04:20:02Z,42.805,6.029,13.3031,4.60108,2470.661,2023-1-18T06:26:22Z
2023-01-18T04:23:05Z,42.805,6.029,13.3024,4.60104,2470.693,2023-1-18T06:29:25Z
2023-01-18T04:26:08Z,42.805,6.029,13.3022,4.60113,2470.6,2023-1-18T06:32:28Z
2023-01-18T04:29:11Z,42.805,6.029,13.3032,4.60097,2470.637,2023-1-18T06:35:31Z
2023-01-18T04:32:14Z,42.805,6.029,13.3020,4.60092,2470.637,2023-1-18T06:38:34Z
2023-01-18T04:35:17Z,42.805,6.029,13.3025,4.60099,2470.661,2023-1-18T06:41:37Z
2023-01-18T04:38:21Z,42.805,6.029,13.3018,4.60102,2470.684,2023-1-18T06:44:40Z
2023-01-18T04:41:24Z,42.805,6.029,13.3041,4.60115,2470.684,2023-1-18T06:47:43Z
2023-01-18T04:44:27Z,42.805,6.029,13.3030,4.60115,2470.646,2023-1-18T06:50:46Z
2023-01-18T04:47:30Z,42.805,6.029,13.3026,4.60105,2470.67,2023-1-18T06:53:50Z
2023-01-18T04:50:33Z,42.805,6.029,13.3036,4.60105,2470.624,2023-1-18T06:56:53Z
2023-01-18T04:53:36Z,42.805,6.029,13.3022,4.60104,2470.646,2023-1-18T06:59:56Z
2023-01-18T04:56:39Z,42.805,6.029,13.3035,4.60118,2470.67,2023-1-18T07:02:59Z
2023-01-18T04:59:42Z,42.805,6.029,13.3026,4.60092,2470.67,2023-1-18T07:06:02Z
2023-01-18T05:02:45Z,42.805,6.029,13.3026,4.60094,2470.646,2023-1-18T07:09:05Z
2023-01-18T05:05:48Z,42.805,6.029,13.3025,4.60089,2470.646,2023-1-18T07:12:08Z
2023-01-18T05:08:51Z,42.805,6.029,13.3026,4.60089,2470.661,2023-1-18T07:15:11Z
2023-01-18T05:11:54Z,42.805,6.029,13.3021,4.60104,2470.624,2023-1-18T07:18:14Z
2023-01-18T05:14:58Z,42.805,6.029,13.3029,4.60097,2470.624,2023-1-18T07:21:17Z
2023-01-18T05:18:01Z,42.805,6.029,13.3019,4.60087,2470.693,2023-1-18T07:24:20Z
2023-01-18T05:21:04Z,42.805,6.029,13.3020,4.60102,2470.684,2023-1-18T07:27:23Z
2023-01-18T05:24:07Z,42.805,6.029,13.3024,4.60085,2470.67,2023-1-18T07:30:27Z
2023-01-18T05:27:10Z,42.805,6.029,13.3024,4.60092,2470.646,2023-1-18T07:33:30Z
2023-01-18T05:30:13Z,42.805,6.029,13.3027,4.60104,2470.646,2023-1-18T07:36:33Z
2023-01-18T05:33:16Z,42.805,6.029,13.3035,4.60104,2470.646,2023-1-18T07:39:36Z
2023-01-18T05:36:19Z,42.805,6.029,13.3027,4.60106,2470.646,2023-1-18T07:42:39Z
2023-01-18T05:39:22Z,42.805,6.029,13.3032,4.60108,2470.646,2023-1-18T07:45:42Z
2023-01-18T05:42:25Z,42.805,6.029,13.3025,4.60105,2470.646,2023-1-18T07:48:45Z
2023-01-18T05:45:28Z,42.805,6.029,13.3036,4.60112,2470.637,2023-1-18T07:51:48Z
2023-01-18T05:48:32Z,42.805,6.029,13.3026,4.60117,2470.67,2023-1-18T07:54:51Z
2023-01-18T05:51:35Z,42.805,6.029,13.3032,4.60125,2470.661,2023-1-18T07:57:54Z
2023-01-18T05:54:38Z,42.805,6.029,13.3037,4.60116,2470.624,2023-1-18T08:00:57Z
2023-01-18T05:57:41Z,42.805,6.029,13.3026,4.60101,2470.661,2023-1-18T08:04:01Z
2023-01-18T06:00:44Z,42.805,6.029,13.3025,4.60114,2470.67,2023-1-18T08:07:04Z
2023-01-18T06:03:47Z,42.805,6.029,13.3025,4.60095,2470.661,2023-1-18T08:10:07Z
2023-01-18T06:06:50Z,42.805,6.029,13.3025,4.60093,2470.661,2023-1-18T08:13:10Z
2023-01-18T06:09:53Z,42.805,6.029,13.3026,4.60094,2470.661,2023-1-18T08:16:13Z
2023-01-18T06:12:56Z,42.805,6.029,13.3035,4.60102,2470.646,2023-1-18T08:19:16Z
2023-01-18T06:15:59Z,42.805,6.029,13.3021,4.60088,2470.661,2023-1-18T08:22:19Z
2023-01-18T06:19:02Z,42.805,6.029,13.3042,4.60116,2470.661,2023-1-18T08:25:22Z
2023-01-18T06:22:05Z,42.805,6.029,13.3051,4.60113,2470.67,2023-1-18T08:28:25Z
2023-01-18T06:25:09Z,42.805,6.029,13.3038,4.60130,2470.646,2023-1-18T08:31:28Z
2023-01-18T06:28:12Z,42.805,6.029,13.3042,4.60132,2470.646,2023-1-18T08:34:31Z
2023-01-18T06:31:15Z,42.805,6.029,13.3052,4.60127,2470.624,2023-1-18T08:37:34Z
2023-01-18T06:34:18Z,42.805,6.029,13.3046,4.60139,2470.646,2023-1-18T08:40:38Z
2023-01-18T06:37:21Z,42.805,6.029,13.3034,4.60139,2470.624,2023-1-18T08:43:41Z
2023-01-18T06:40:24Z,42.805,6.029,13.3048,4.60119,2470.661,2023-1-18T08:46:44Z
2023-01-18T06:43:27Z,42.805,6.029,13.3026,4.60114,2470.624,2023-1-18T08:49:47Z
2023-01-18T06:46:30Z,42.805,6.029,13.3052,4.60103,2470.646,2023-1-18T08:52:50Z
2023-01-18T06:49:33Z,42.805,6.029,13.3043,4.60131,2470.624,2023-1-18T08:55:53Z
2023-01-18T06:52:36Z,42.805,6.029,13.3037,4.60116,2470.624,2023-1-18T08:58:56Z
2023-01-18T06:55:39Z,42.805,6.029,13.3055,4.60103,2470.684,2023-1-18T09:01:59Z
2023-01-18T06:58:42Z,42.805,6.029,13.3040,4.60122,2470.661,2023-1-18T09:05:02Z
2023-01-18T07:01:46Z,42.805,6.029,13.3034,4.60133,2470.637,2023-1-18T09:08:05Z
2023-01-18T07:04:49Z,42.805,6.029,13.3037,4.60127,2470.624,2023-1-18T09:11:08Z
2023-01-18T07:07:52Z,42.805,6.029,13.3044,4.60132,2470.637,2023-1-18T09:14:12Z
2023-01-18T07:10:55Z,42.805,6.029,13.3043,4.60126,2470.637,2023-1-18T09:17:15Z
2023-01-18T07:13:58Z,42.805,6.029,13.3039,4.60125,2470.637,2023-1-18T09:20:18Z
2023-01-18T07:17:01Z,42.805,6.029,13.3025,4.60125,2470.646,2023-1-18T09:23:21Z
2023-01-18T07:20:04Z,42.805,6.029,13.3038,4.60119,2470.646,2023-1-18T09:26:24Z
2023-01-18T07:23:07Z,42.805,6.029,13.3034,4.60130,2470.637,2023-1-18T09:29:27Z
2023-01-18T07:26:10Z,42.805,6.029,13.3041,4.60117,2470.637,2023-1-18T09:32:30Z
2023-01-18T07:29:13Z,42.805,6.029,13.3046,4.60127,2470.6,2023-1-18T09:35:33Z
2023-01-18T07:32:16Z,42.805,6.029,13.3043,4.60148,2470.637,2023-1-18T09:38:36Z
2023-01-18T07:35:20Z,42.805,6.029,13.3043,4.60130,2470.624,2023-1-18T09:41:39Z
2023-01-18T07:38:23Z,42.805,6.029,13.3046,4.60144,2470.624,2023-1-18T09:44:42Z
2023-01-18T07:41:26Z,42.805,6.029,13.3054,4.60132,2470.624,2023-1-18T09:47:46Z
2023-01-18T07:44:29Z,42.805,6.029,13.3032,4.60125,2470.637,2023-1-18T09:50:49Z
2023-01-18T07:47:32Z,42.805,6.029,13.3048,4.60128,2470.637,2023-1-18T09:53:52Z
2023-01-18T07:50:35Z,42.805,6.029,13.3039,4.60142,2470.624,2023-1-18T09:56:55Z
2023-01-18T07:53:38Z,42.805,6.029,13.3042,4.60114,2470.624,2023-1-18T09:59:58Z
2023-01-18T07:56:41Z,42.805,6.029,13.3047,4.60137,2470.637,2023-1-18T10:03:01Z
2023-01-18T07:59:44Z,42.805,6.029,13.3053,4.60125,2470.624,2023-1-18T10:06:04Z
2023-01-18T08:02:47Z,42.805,6.029,13.3046,4.60137,2470.624,2023-1-18T10:09:07Z
2023-01-18T08:05:50Z,42.805,6.029,13.3035,4.60159,2470.6,2023-1-18T10:12:10Z
2023-01-18T08:08:53Z,42.805,6.029,13.3053,4.60140,2470.624,2023-1-18T10:15:13Z
2023-01-18T08:11:57Z,42.805,6.029,13.3042,4.60130,2470.6,2023-1-18T10:18:16Z
2023-01-18T08:15:00Z,42.805,6.029,13.3053,4.60146,2470.624,2023-1-18T10:21:19Z
2023-01-18T08:18:03Z,42.805,6.029,13.3054,4.60123,2470.637,2023-1-18T10:24:23Z
2023-01-18T08:21:06Z,42.805,6.029,13.3048,4.60127,2470.624,2023-1-18T10:27:26Z
2023-01-18T08:24:09Z,42.805,6.029,13.3046,4.60137,2470.624,2023-1-18T10:30:29Z
2023-01-18T08:27:12Z,42.805,6.029,13.3052,4.60144,2470.624,2023-1-18T10:33:32Z
2023-01-18T08:30:15Z,42.805,6.029,13.3056,4.60125,2470.614,2023-1-18T10:36:35Z
2023-01-18T08:33:18Z,42.805,6.029,13.3047,4.60140,2470.637,2023-1-18T10:39:38Z
2023-01-18T08:36:21Z,42.805,6.029,13.3018,4.60099,2470.637,2023-1-18T10:42:41Z
2023-01-18T08:39:24Z,42.805,6.029,13.3035,4.60096,2470.661,2023-1-18T10:45:44Z
2023-01-18T08:42:27Z,42.805,6.029,13.3033,4.60104,2470.591,2023-1-18T10:48:47Z
2023-01-18T08:45:31Z,42.805,6.029,13.3052,4.60144,2470.637,2023-1-18T10:51:50Z
2023-01-18T08:48:34Z,42.805,6.029,13.3039,4.60143,2470.624,2023-1-18T10:54:54Z
2023-01-18T08:51:37Z,42.805,6.029,13.3061,4.60146,2470.6,2023-1-18T10:57:57Z
2023-01-18T08:54:40Z,42.805,6.029,13.3046,4.60127,2470.646,2023-1-18T11:01:00Z
2023-01-18T08:57:43Z,42.805,6.029,13.3061,4.60156,2470.614,2023-1-18T11:04:03Z
2023-01-18T09:00:46Z,42.805,6.029,13.3036,4.60114,2470.624,2023-1-18T11:07:06Z
2023-01-18T09:03:49Z,42.805,6.029,13.3031,4.60126,2470.624,2023-1-18T11:10:09Z
2023-01-18T09:06:52Z,42.805,6.029,13.3054,4.60099,2470.577,2023-1-18T11:13:12Z
2023-01-18T09:09:55Z,42.805,6.029,13.3026,4.60116,2470.6,2023-1-18T11:16:15Z
2023-01-18T09:12:58Z,42.805,6.029,13.3030,4.60097,2470.624,2023-1-18T11:19:18Z
2023-01-18T09:16:02Z,42.805,6.029,13.3037,4.60114,2470.614,2023-1-18T11:22:21Z
2023-01-18T09:19:05Z,42.805,6.029,13.3034,4.60123,2470.637,2023-1-18T11:25:24Z
2023-01-18T09:22:08Z,42.805,6.029,13.3029,4.60114,2470.624,2023-1-18T11:28:28Z
2023-01-18T09:25:11Z,42.805,6.029,13.3041,4.60140,2470.624,2023-1-18T11:31:31Z
2023-01-18T09:28:14Z,42.805,6.029,13.3059,4.60123,2470.624,2023-1-18T11:34:34Z
2023-01-18T09:31:17Z,42.805,6.029,13.3051,4.60161,2470.624,2023-1-18T11:37:37Z
2023-01-18T09:34:20Z,42.805,6.029,13.3051,4.60150,2470.661,2023-1-18T11:40:40Z
2023-01-18T09:37:23Z,42.805,6.029,13.3069,4.60145,2470.637,2023-1-18T11:43:43Z
2023-01-18T09:40:26Z,42.805,6.029,13.3056,4.60144,2470.614,2023-1-18T11:46:46Z
2023-01-18T09:43:29Z,42.805,6.029,13.3051,4.60135,2470.6,2023-1-18T11:49:49Z
2023-01-18T09:46:32Z,42.805,6.029,13.3036,4.60157,2470.624,2023-1-18T11:52:52Z
2023-01-18T09:49:36Z,42.805,6.029,13.3056,4.60128,2470.6,2023-1-18T11:55:55Z
2023-01-18T09:52:39Z,42.805,6.029,13.3042,4.60132,2470.614,2023-1-18T11:58:59Z
2023-01-18T09:55:42Z,42.805,6.029,13.3034,4.60132,2470.614,2023-1-18T12:02:02Z
2023-01-18T09:58:45Z,42.805,6.029,13.3034,4.60138,2470.646,2023-1-18T12:05:05Z
2023-01-18T10:01:48Z,42.805,6.029,13.3054,4.60126,2470.661,2023-1-18T12:08:08Z
2023-01-18T10:04:51Z,42.805,6.029,13.3041,4.60131,2470.624,2023-1-18T12:11:11Z
2023-01-18T10:07:54Z,42.805,6.029,13.3046,4.60139,2470.6,2023-1-18T12:14:14Z
2023-01-18T10:10:57Z,42.805,6.029,13.3032,4.60120,2470.637,2023-1-18T12:17:17Z
2023-01-18T10:14:00Z,42.805,6.029,13.3038,4.60113,2470.624,2023-1-18T12:20:20Z
2023-01-18T10:17:03Z,42.805,6.029,13.3048,4.60130,2470.6,2023-1-18T12:23:23Z
2023-01-18T10:20:06Z,42.805,6.029,13.3044,4.60127,2470.6,2023-1-18T12:26:26Z
2023-01-18T10:23:10Z,42.805,6.029,13.3033,4.60150,2470.6,2023-1-18T12:29:29Z
2023-01-18T10:26:13Z,42.805,6.029,13.3028,4.60138,2470.614,2023-1-18T12:32:33Z
2023-01-18T10:29:16Z,42.805,6.029,13.3046,4.60141,2470.646,2023-1-18T12:35:36Z
2023-01-18T10:32:19Z,42.805,6.029,13.3048,4.60144,2470.661,2023-1-18T12:38:39Z
2023-01-18T10:35:22Z,42.805,6.029,13.3056,4.60122,2470.614,2023-1-18T12:41:42Z
2023-01-18T10:38:25Z,42.805,6.029,13.3057,4.60137,2470.646,2023-1-18T12:44:45Z
2023-01-18T10:41:28Z,42.805,6.029,13.3053,4.60127,2470.6,2023-1-18T12:47:48Z
2023-01-18T10:44:31Z,42.805,6.029,13.3058,4.60126,2470.637,2023-1-18T12:50:51Z
2023-01-18T10:47:34Z,42.805,6.029,13.3039,4.60119,2470.646,2023-1-18T12:53:54Z
2023-01-18T10:50:37Z,42.805,6.029,13.3048,4.60107,2470.624,2023-1-18T12:56:57Z
2023-01-18T10:53:40Z,42.805,6.029,13.3046,4.60119,2470.661,2023-1-18T13:00:00Z
2023-01-18T10:56:44Z,42.805,6.029,13.3054,4.60132,2470.6,2023-1-18T13:03:03Z
2023-01-18T10:59:47Z,42.805,6.029,13.3051,4.60144,2470.577,2023-1-18T13:06:07Z
2023-01-18T11:02:50Z,42.805,6.029,13.3054,4.60140,2470.637,2023-1-18T13:09:10Z
2023-01-18T11:05:53Z,42.805,6.029,13.3054,4.60152,2470.637,2023-1-18T13:12:13Z
2023-01-18T11:08:56Z,42.805,6.029,13.3051,4.60162,2470.614,2023-1-18T13:15:16Z
2023-01-18T11:11:59Z,42.805,6.029,13.3066,4.60092,2470.6,2023-1-18T13:18:19Z
2023-01-18T11:15:02Z,42.805,6.029,13.3055,4.60134,2470.6,2023-1-18T13:21:22Z
2023-01-18T11:18:05Z,42.805,6.029,13.3034,4.60142,2470.614,2023-1-18T13:24:25Z
2023-01-18T11:21:08Z,42.805,6.029,13.3056,4.60147,2470.637,2023-1-18T13:27:28Z
2023-01-18T11:24:11Z,42.805,6.029,13.3040,4.60124,2470.591,2023-1-18T13:30:31Z
2023-01-18T11:27:14Z,42.805,6.029,13.3063,4.60131,2470.624,2023-1-18T13:33:34Z
2023-01-18T11:30:18Z,42.805,6.029,13.3067,4.60131,2470.577,2023-1-18T13:36:38Z
2023-01-18T11:33:21Z,42.805,6.029,13.3039,4.60133,2470.6,2023-1-18T13:39:41Z
2023-01-18T11:36:24Z,42.805,6.029,13.3054,4.60137,2470.591,2023-1-18T13:42:44Z
2023-01-18T11:39:27Z,42.805,6.029,13.3054,4.60143,2470.6,2023-1-18T13:45:47Z
2023-01-18T11:42:30Z,42.805,6.029,13.3049,4.60118,2470.661,2023-1-18T13:48:50Z
2023-01-18T11:45:33Z,42.805,6.029,13.3059,4.60127,2470.614,2023-1-18T13:51:53Z
2023-01-18T11:48:36Z,42.805,6.029,13.3036,4.60131,2470.577,2023-1-18T13:54:56Z
2023-01-18T11:51:39Z,42.805,6.029,13.3056,4.60142,2470.6,2023-1-18T13:57:59Z
2023-01-18T11:54:42Z,42.805,6.029,13.3058,4.60144,2470.624,2023-1-18T14:01:02Z
2023-01-18T11:57:45Z,42.805,6.029,13.3050,4.60148,2470.624,2023-1-18T14:04:05Z
2023-01-18T12:00:48Z,42.805,6.029,13.3029,4.60159,2470.591,2023-1-18T14:07:08Z
2023-01-18T12:03:52Z,42.805,6.029,13.3043,4.60141,2470.6,2023-1-18T14:10:12Z
2023-01-18T12:06:55Z,42.805,6.029,13.3049,4.60110,2470.6,2023-1-18T14:13:15Z
2023-01-18T12:09:58Z,42.805,6.029,13.3043,4.60148,2470.6,2023-1-18T14:16:18Z
2023-01-18T12:13:01Z,42.805,6.029,13.3041,4.60150,2470.624,2023-1-18T14:19:21Z
2023-01-18T12:16:04Z,42.805,6.029,13.3054,4.60142,2470.661,2023-1-18T14:22:24Z
2023-01-18T12:19:07Z,42.805,6.029,13.3053,4.60157,2470.624,2023-1-18T14:25:27Z
2023-01-18T12:22:10Z,42.805,6.029,13.3050,4.60143,2470.661,2023-1-18T14:28:30Z
2023-01-18T12:25:13Z,42.805,6.029,13.3048,4.60156,2470.637,2023-1-18T14:31:33Z
2023-01-18T12:28:16Z,42.805,6.029,13.3044,4.60183,2470.614,2023-1-18T14:34:36Z
2023-01-18T12:31:19Z,42.805,6.029,13.3071,4.60151,2470.591,2023-1-18T14:37:39Z
2023-01-18T12:34:23Z,42.805,6.029,13.3061,4.60160,2470.624,2023-1-18T14:40:43Z
2023-01-18T12:37:26Z,42.805,6.029,13.3052,4.60151,2470.6,2023-1-18T14:43:46Z
2023-01-18T12:40:29Z,42.805,6.029,13.3054,4.60163,2470.624,2023-1-18T14:46:49Z
2023-01-18T12:43:32Z,42.805,6.029,13.3035,4.60128,2470.646,2023-1-18T14:49:52Z
2023-01-18T12:46:35Z,42.805,6.029,13.3029,4.60117,2470.637,2023-1-18T14:52:55Z
2023-01-18T12:49:38Z,42.805,6.029,13.3032,4.60112,2470.624,2023-1-18T14:55:58Z
2023-01-18T12:52:41Z,42.805,6.029,13.3066,4.60146,2470.637,2023-1-18T14:59:01Z
2023-01-18T12:55:44Z,42.805,6.029,13.3040,4.60133,2470.646,2023-1-18T15:02:04Z
2023-01-18T12:58:47Z,42.805,6.029,13.3029,4.60117,2470.646,2023-1-18T15:05:07Z
2023-01-18T13:01:50Z,42.805,6.029,13.3048,4.60139,2470.67,2023-1-18T15:08:10Z
2023-01-18T13:04:53Z,42.805,6.029,13.3047,4.60142,2470.684,2023-1-18T15:11:13Z
2023-01-18T13:07:56Z,42.805,6.029,13.3049,4.60160,2470.661,2023-1-18T15:14:16Z
2023-01-18T13:11:00Z,42.805,6.029,13.3075,4.60166,2470.646,2023-1-18T15:17:20Z
2023-01-18T13:14:03Z,42.805,6.029,13.3061,4.60144,2470.646,2023-1-18T15:20:23Z
2023-01-18T13:17:06Z,42.805,6.029,13.3085,4.60165,2470.637,2023-1-18T15:23:26Z
2023-01-18T13:20:09Z,42.805,6.029,13.3043,4.60146,2470.61,2023-1-18T15:26:29Z
2023-01-18T13:23:12Z,42.805,6.029,13.3053,4.60145,2470.624,2023-1-18T15:29:32Z
2023-01-18T13:26:15Z,42.805,6.029,13.3051,4.60144,2470.67,2023-1-18T15:32:35Z
2023-01-18T13:29:18Z,42.805,6.029,13.3058,4.60173,2470.684,2023-1-18T15:35:38Z
2023-01-18T13:32:21Z,42.805,6.029,13.3067,4.60165,2470.661,2023-1-18T15:38:41Z
2023-01-18T13:35:24Z,42.805,6.029,13.3049,4.60158,2470.646,2023-1-18T15:41:44Z
2023-01-18T13:38:27Z,42.805,6.029,13.3068,4.60166,2470.661,2023-1-18T15:44:47Z
2023-01-18T13:41:31Z,42.805,6.029,13.3036,4.60147,2470.684,2023-1-18T15:47:51Z
2023-01-18T13:44:34Z,42.805,6.029,13.3063,4.60117,2470.693,2023-1-18T15:50:54Z
2023-01-18T13:47:37Z,42.805,6.029,13.3065,4.60143,2470.707,2023-1-18T15:53:57Z
2023-01-18T13:50:40Z,42.805,6.029,13.3047,4.60147,2470.67,2023-1-18T15:57:00Z
2023-01-18T13:53:43Z,42.805,6.029,13.3039,4.60110,2470.67,2023-1-18T16:00:03Z
2023-01-18T13:56:46Z,42.805,6.029,13.3045,4.60152,2470.67,2023-1-18T16:03:06Z
2023-01-18T13:59:49Z,42.805,6.029,13.3039,4.60156,2470.646,2023-1-18T16:06:09Z
2023-01-18T14:02:52Z,42.805,6.029,13.3033,4.60129,2470.707,2023-1-18T16:09:12Z
2023-01-18T14:05:55Z,42.805,6.029,13.3056,4.60140,2470.67,2023-1-18T16:12:15Z
2023-01-18T14:08:58Z,42.805,6.029,13.3058,4.60126,2470.661,2023-1-18T16:15:18Z
2023-01-18T14:12:01Z,42.805,6.029,13.3048,4.60113,2470.646,2023-1-18T16:18:21Z
2023-01-18T14:15:04Z,42.805,6.029,13.3027,4.60107,2470.67,2023-1-18T16:21:25Z
2023-01-18T14:18:08Z,42.805,6.029,13.3026,4.60106,2470.646,2023-1-18T16:24:28Z
2023-01-18T14:21:11Z,42.805,6.029,13.3048,4.60126,2470.661,2023-1-18T16:27:31Z
2023-01-18T14:24:14Z,42.805,6.029,13.3044,4.60125,2470.661,2023-1-18T16:30:34Z
2023-01-18T14:27:17Z,42.805,6.029,13.3059,4.60138,2470.693,2023-1-18T16:33:37Z
2023-01-18T14:30:20Z,42.805,6.029,13.3066,4.60149,2470.707,2023-1-18T16:36:40Z
2023-01-18T14:33:23Z,42.805,6.029,13.3057,4.60143,2470.693,2023-1-18T16:39:43Z
2023-01-18T14:36:26Z,42.805,6.029,13.3062,4.60149,2470.67,2023-1-18T16:42:46Z
2023-01-18T14:39:29Z,42.805,6.029,13.3049,4.60140,2470.693,2023-1-18T16:45:49Z
2023-01-18T14:42:32Z,42.805,6.029,13.3073,4.60147,2470.693,2023-1-18T16:48:52Z
2023-01-18T14:45:35Z,42.805,6.029,13.3069,4.60156,2470.684,2023-1-18T16:51:55Z
2023-01-18T14:48:39Z,42.805,6.029,13.3062,4.60170,2470.67,2023-1-18T16:54:59Z
2023-01-18T14:51:42Z,42.805,6.029,13.3053,4.60160,2470.707,2023-1-18T16:58:02Z
2023-01-18T14:54:45Z,42.805,6.029,13.3058,4.60164,2470.693,2023-1-18T17:01:05Z
2023-01-18T14:57:48Z,42.805,6.029,13.3076,4.60119,2470.684,2023-1-18T17:04:08Z
2023-01-18T15:00:51Z,42.805,6.029,13.3070,4.60142,2470.707,2023-1-18T17:07:11Z
2023-01-18T15:03:54Z,42.805,6.029,13.3061,4.60172,2470.707,2023-1-18T17:10:14Z
2023-01-18T15:06:57Z,42.805,6.029,13.3091,4.60135,2470.67,2023-1-18T17:13:17Z
2023-01-18T15:10:00Z,42.805,6.029,13.3096,4.60165,2470.67,2023-1-18T17:16:20Z
2023-01-18T15:13:03Z,42.805,6.029,13.3089,4.60180,2470.67,2023-1-18T17:19:23Z